Location: Raitis
(47.2167°N, 11.3833°E)
Time: 11:12:20
(UTC+00:00)

Okean 1-7 - Pass Details

Date: 03 March 2021
Orbit: 589 x 619 km, 82.5° (Epoch: 23 April)

Event Time Altitude Azimuth Distance (km) Brightness Sun altitude
Rises 17:57:19 0° 358° (N) 2,900 6.5 -10.1°
Reaches altitude 10° 17:59:45 10° 8° (N) 1,985 5.6 -10.5°
Maximum altitude 18:03:44 33° 73° (ENE) 1,039 3.7 -11.1°
Drops below altitude 10° 18:07:40 10° 138° (SE) 1,955 5.2 -11.8°
Enters shadow 18:08:50 - 144° (SE) 2,386 5.7 -12.0°
